When you browse on this site, cookies collect data to enhance your experience and personalize the content and advertising you see.
Visit our Privacy Policy to learn more. By continuing to use the site, you agree to this use of cookies and data.
  • In Schweiz
  • Länderverzeichnis
  • Für 7 Tage
  • Wassertemperatur
  • Wetterkarte
  • Widgets
  • user-avatar
    Anmelden

    Stündliche Wetter Psarcy

    Heute, 14 Dezember, Samstag

    Zeit Temperatur Niederschläge Wind Luftdruck Luftfeuchtigkeit
    00:00 -2°C° 0 mm 5 m/S 737 mmHg 84%
    01:00 -2°C° 0 mm 5 m/S 737 mmHg 84%
    02:00 -2°C° 0 mm 5 m/S 737 mmHg 85%
    03:00 -2°C° 0 mm 5 m/S 737 mmHg 85%
    04:00 -2°C° 0 mm 5 m/S 737 mmHg 85%
    05:00 -2°C° 0 mm 5 m/S 737 mmHg 85%
    06:00 -2°C° 0 mm 5 m/S 737 mmHg 84%
    07:00 -2°C° 0 mm 5 m/S 737 mmHg 84%
    08:00 -2°C° 0 mm 5 m/S 737 mmHg 83%
    09:00 -2°C° 0 mm 5 m/S 737 mmHg 84%
    10:00 -2°C° 0 mm 5 m/S 737 mmHg 84%
    11:00 -2°C° 0 mm 5 m/S 737 mmHg 84%
    12:00 -2°C° 0 mm 5 m/S 737 mmHg 84%
    13:00 -1°C° 0 mm 5 m/S 737 mmHg 83%
    14:00 -1°C° 0 mm 5 m/S 737 mmHg 83%
    15:00 -1°C° 0 mm 5 m/S 737 mmHg 84%
    16:00 -1°C° 0 mm 5 m/S 737 mmHg 85%
    17:00 -1°C° 0 mm 5 m/S 737 mmHg 86%
    18:00 -2°C° 0 mm 5 m/S 737 mmHg 87%
    19:00 -2°C° 0 mm 5 m/S 737 mmHg 87%
    20:00 -2°C° 0 mm 5 m/S 737 mmHg 87%
    21:00 -2°C° 0 mm 4 m/S 736 mmHg 88%
    22:00 -2°C° 0 mm 4 m/S 736 mmHg 89%
    23:00 -2°C° 0 mm 4 m/S 736 mmHg 89%

    Morgen, 15 Dezember, Sonntag

    Zeit Temperatur Niederschläge Wind Luftdruck Luftfeuchtigkeit
    00:00 -2°C° 0 mm 4 m/S 735 mmHg 91%
    01:00 -2°C° 0 mm 4 m/S 735 mmHg 92%
    02:00 -1°C° 0 mm 4 m/S 735 mmHg 94%
    03:00 -1°C° 0.1 mm 4 m/S 734 mmHg 94%
    04:00 0°C° 0.1 mm 5 m/S 734 mmHg 95%
    05:00 0°C° 0.1 mm 5 m/S 733 mmHg 95%
    06:00 0°C° 0.3 mm 5 m/S 733 mmHg 95%
    07:00 +1°C° 0.3 mm 5 m/S 733 mmHg 95%
    08:00 +1°C° 0.3 mm 5 m/S 732 mmHg 95%
    09:00 +1°C° 0.7 mm 5 m/S 732 mmHg 95%
    10:00 +1°C° 0.7 mm 5 m/S 732 mmHg 95%
    11:00 +1°C° 0.7 mm 5 m/S 732 mmHg 96%
    12:00 +1°C° 0.4 mm 5 m/S 732 mmHg 93%
    13:00 +1°C° 0.4 mm 5 m/S 733 mmHg 90%
    14:00 +1°C° 0.4 mm 4 m/S 733 mmHg 86%
    15:00 0°C° 0 mm 4 m/S 734 mmHg 87%
    16:00 0°C° 0 mm 4 m/S 734 mmHg 87%
    17:00 -1°C° 0 mm 4 m/S 735 mmHg 87%
    18:00 -1°C° 0 mm 4 m/S 735 mmHg 87%
    19:00 -1°C° 0 mm 4 m/S 735 mmHg 87%
    20:00 -2°C° 0 mm 4 m/S 736 mmHg 87%
    21:00 -2°C° 0 mm 4 m/S 736 mmHg 88%
    22:00 -2°C° 0 mm 4 m/S 737 mmHg 89%
    23:00 -2°C° 0 mm 4 m/S 737 mmHg 90%

    übermorgen, 16 Dezember, Montag

    Zeit Temperatur Niederschläge Wind Luftdruck Luftfeuchtigkeit
    00:00 -2°C° 0 mm 4 m/S 737 mmHg 90%
    01:00 -2°C° 0 mm 4 m/S 737 mmHg 90%
    02:00 -2°C° 0 mm 5 m/S 737 mmHg 90%
    03:00 -1°C° 0.2 mm 5 m/S 737 mmHg 92%
    04:00 -1°C° 0.2 mm 5 m/S 737 mmHg 94%
    05:00 0°C° 0.2 mm 5 m/S 737 mmHg 96%
    06:00 0°C° 0.1 mm 5 m/S 737 mmHg 94%
    07:00 0°C° 0.1 mm 5 m/S 737 mmHg 93%
    08:00 +1°C° 0.1 mm 5 m/S 737 mmHg 92%
    09:00 +1°C° 0 mm 5 m/S 738 mmHg 90%
    10:00 +1°C° 0 mm 5 m/S 738 mmHg 87%
    11:00 +1°C° 0 mm 6 m/S 739 mmHg 85%
    12:00 +1°C° 0 mm 5 m/S 739 mmHg 84%
    13:00 +1°C° 0 mm 5 m/S 739 mmHg 82%
    14:00 0°C° 0 mm 5 m/S 740 mmHg 80%
    15:00 0°C° 0 mm 5 m/S 740 mmHg 79%
    16:00 0°C° 0 mm 5 m/S 741 mmHg 79%
    17:00 0°C° 0 mm 5 m/S 741 mmHg 79%
    18:00 -1°C° 0 mm 5 m/S 742 mmHg 82%
    19:00 -1°C° 0 mm 4 m/S 742 mmHg 85%
    20:00 -2°C° 0 mm 4 m/S 743 mmHg 88%
    21:00 -2°C° 0 mm 4 m/S 743 mmHg 89%
    22:00 -1°C° 0 mm 3 m/S 743 mmHg 91%
    23:00 -2°C° 0 mm 3 m/S 743 mmHg 92%

    17 Dezember, Dienstag

    Zeit Temperatur Niederschläge Wind Luftdruck Luftfeuchtigkeit
    00:00 -2°C° 0 mm 3 m/S 744 mmHg 92%
    01:00 -1°C° 0 mm 3 m/S 744 mmHg 91%
    02:00 -1°C° 0 mm 3 m/S 744 mmHg 91%
    03:00 -1°C° 0 mm 3 m/S 743 mmHg 90%
    04:00 -1°C° 0 mm 3 m/S 743 mmHg 90%
    05:00 -1°C° 0 mm 3 m/S 743 mmHg 89%
    06:00 0°C° 0 mm 3 m/S 743 mmHg 89%
    07:00 0°C° 0 mm 3 m/S 742 mmHg 89%
    08:00 -1°C° 0 mm 4 m/S 742 mmHg 89%
    09:00 0°C° 0 mm 4 m/S 742 mmHg 89%
    10:00 0°C° 0 mm 4 m/S 742 mmHg 89%
    11:00 +1°C° 0 mm 5 m/S 742 mmHg 89%
    12:00 +1°C° 0 mm 4 m/S 741 mmHg 89%
    13:00 +1°C° 0 mm 4 m/S 741 mmHg 90%
    14:00 +1°C° 0 mm 4 m/S 741 mmHg 90%
    15:00 +1°C° 0 mm 4 m/S 741 mmHg 91%
    16:00 0°C° 0 mm 4 m/S 741 mmHg 92%
    17:00 +1°C° 0 mm 3 m/S 741 mmHg 93%
    18:00 +1°C° 0 mm 3 m/S 741 mmHg 94%
    19:00 0°C° 0 mm 3 m/S 741 mmHg 94%
    20:00 0°C° 0 mm 3 m/S 741 mmHg 94%
    21:00 0°C° 0 mm 3 m/S 741 mmHg 94%
    22:00 0°C° 0 mm 3 m/S 741 mmHg 94%
    23:00 +1°C° 0 mm 3 m/S 741 mmHg 95%

    18 Dezember, Mittwoch

    Zeit Temperatur Niederschläge Wind Luftdruck Luftfeuchtigkeit
    00:00 +1°C° 0 mm 3 m/S 741 mmHg 94%
    01:00 +1°C° 0 mm 3 m/S 741 mmHg 94%
    02:00 +1°C° 0 mm 3 m/S 740 mmHg 94%
    03:00 +1°C° 0 mm 3 m/S 740 mmHg 94%
    04:00 +1°C° 0 mm 3 m/S 740 mmHg 93%
    05:00 +1°C° 0 mm 3 m/S 740 mmHg 93%
    06:00 +1°C° 0 mm 3 m/S 739 mmHg 93%
    07:00 +1°C° 0 mm 3 m/S 739 mmHg 93%
    08:00 0°C° 0 mm 3 m/S 739 mmHg 93%
    09:00 +1°C° 0 mm 3 m/S 739 mmHg 92%
    10:00 +1°C° 0 mm 3 m/S 739 mmHg 92%
    11:00 +1°C° 0 mm 3 m/S 739 mmHg 91%
    12:00 +1°C° 0 mm 3 m/S 739 mmHg 93%
    13:00 +1°C° 0 mm 3 m/S 739 mmHg 94%
    14:00 +1°C° 0 mm 3 m/S 739 mmHg 95%
    15:00 +1°C° 0 mm 3 m/S 739 mmHg 96%
    16:00 +2°C° 0 mm 3 m/S 739 mmHg 96%
    17:00 +2°C° 0 mm 3 m/S 739 mmHg 97%
    18:00 +2°C° 0 mm 3 m/S 739 mmHg 97%
    19:00 +2°C° 0 mm 3 m/S 739 mmHg 97%
    20:00 +2°C° 0 mm 3 m/S 738 mmHg 97%
    21:00 +2°C° 0 mm 3 m/S 739 mmHg 97%
    22:00 +2°C° 0 mm 3 m/S 739 mmHg 97%
    23:00 +3°C° 0 mm 3 m/S 739 mmHg 97%

    19 Dezember, Donnerstag

    Zeit Temperatur Niederschläge Wind Luftdruck Luftfeuchtigkeit
    00:00 +2°C° 0 mm 3 m/S 738 mmHg 97%
    01:00 +2°C° 0 mm 3 m/S 738 mmHg 97%
    02:00 +2°C° 0 mm 3 m/S 738 mmHg 97%
    03:00 +2°C° 0 mm 3 m/S 737 mmHg 97%
    04:00 +1°C° 0 mm 4 m/S 737 mmHg 97%
    05:00 +3°C° 0 mm 4 m/S 737 mmHg 97%
    06:00 +3°C° 0 mm 4 m/S 737 mmHg 95%
    07:00 +3°C° 0 mm 4 m/S 737 mmHg 94%
    08:00 +3°C° 0 mm 4 m/S 737 mmHg 93%
    09:00 +3°C° 0 mm 4 m/S 737 mmHg 91%
    10:00 +2°C° 0 mm 5 m/S 738 mmHg 88%
    11:00 +2°C° 0 mm 5 m/S 738 mmHg 86%
    12:00 +3°C° 0 mm 4 m/S 739 mmHg 83%
    13:00 +3°C° 0 mm 4 m/S 739 mmHg 81%
    14:00 +3°C° 0 mm 4 m/S 739 mmHg 78%
    15:00 +2°C° 0 mm 3 m/S 739 mmHg 82%
    16:00 +1°C° 0 mm 3 m/S 740 mmHg 85%
    17:00 0°C° 0 mm 3 m/S 740 mmHg 88%
    18:00 0°C° 0 mm 3 m/S 740 mmHg 90%
    19:00 -1°C° 0 mm 3 m/S 741 mmHg 92%
    20:00 -1°C° 0 mm 2 m/S 741 mmHg 94%
    21:00 -1°C° 0 mm 2 m/S 741 mmHg 91%
    22:00 +1°C° 0 mm 2 m/S 742 mmHg 88%
    23:00 +1°C° 0 mm 2 m/S 742 mmHg 85%
    Mehr zeigen